Airfield :
LOGIN :

Register | Disclaimer

   EN    FR    IT 

 










Legend :    VFR   Marginal VFR   IFR   Intensive IFR   Very Intensive IFR
Visi :
Ceiling :
>= 8 km
>= 3000ft
5 to 8 km
1000 to 3000 ft
1500m to 5 km
500 to 1000 ft
800 to 1500m
200 to 500 ft
< 800m
< 200 ft
Symbols :   Thunderstorms  Fog  Heavy snow  Heavy precipitations  Wind > 20 kt
SIGMETs :     Misc.  Thunderstorms  Icing  Turbulence  Mountain Waves  Volcanic Ashes







- Airport Elevation : 46 ft
- IATA code : PAF


LPMT - Montijo Air Base

CURRENT METAR :
  • 240800Z 02006KT CAVOK 17/16 Q1014

EXPIRED METARs :
  • 240700Z 34003KT 310V020 CAVOK 16/16 Q1013
  • 240600Z 07003KT 350V140 CAVOK 16/15 Q1013

TAF TAF LPMT
Valid from the 24 at 06:00 until the 25 at 06:00 UTC


240510Z 2406/2506 36010KT CAVOK
TEMPO 2415/2421 35012G25KT
BECMG 2502/2504 SCT006 BKN012
No reported NOTAMs for that airfield.



MET'MAP, your aeronautical weather chart ! - Copyright ORBIFLY December 2007 - Disclaimer

ORBIFLY MET'MAP TEAM :

Programming & Development : Alexandra Zaïnal
Concept & Development : Baudouin d'Aumeries
Co-Development & Prog : Marc-Olivier Méhu
Technical & hardware support : Manuel Goepfert

Contact : metmap@orbifly.com




SOURCES & CREDITS :

   NOAA